Home > Weather > Ponta Delgada > Past weeks

Flag for Portugal Past Weather in Ponta Delgada, Azores, Portugal — Yesterday and Last 2 Weeks

Now
64 °F

Passing clouds.


Feels Like: 64 °F
Forecast: 65 / 72 °F
Wind: 8 mph from Northeast

Location: Ponta Delgada / Nordela Acores

Current Time: Jun 28, 2016 at 6:08:01 AM

Latest Report: Jun 28, 2016 at 5:30 AM


Visibility: N/A

Pressure: 30.45 "Hg

Humidity: 88%

Dew Point: 61 °F

Location of Ponta DelgadaLocation

Past Weather in Ponta Delgada — Graph

°F

Ponta Delgada Temperature Yesterday

Maximum temperature yesterday: 72 °F (at 2:30 PM)
Minimum temperature yesterday: 63 °F (at 12:30 AM)
Average temperature yesterday: 67 °F

High & Low Weather Summary for the Past Weeks

 TemperatureHumidityPressure
High72 °F (Jun 14, 2:30 PM)100% (Jun 13, 5:00 AM)30.51 "Hg (Jun 13, 5:00 AM)
Low57 °F (Jun 17, 5:00 AM)56% (Jun 15, 11:00 AM)30.12 "Hg (Jun 21, 1:30 PM)
Average65 °F81%30.36 "Hg
* Reported Jun 13 5:00 AM — Jun 28 5:00 AM, Ponta Delgada, Weather by CustomWeather, © 2016

Note: Actual official high and low records may vary slightly from our data, if they occured in-between our weather recording intervals... More about our weather records

Advertising

Ponta Delgada Weather History for the Previous 24 Hours

Scroll right to see more
 ConditionsComfort  
Time TempWeatherWind HumidityBarometerVisibility
5:00 AM
Tue, Jun 28
64 °FPassing clouds.10 mph88%30.45 "HgN/A
4:30 AM64 °FPassing clouds.8 mph94%30.45 "HgN/A
4:00 AM64 °FPassing clouds.8 mph88%30.48 "HgN/A
3:30 AM64 °FPassing clouds.9 mph94%30.48 "HgN/A
3:00 AM64 °FPassing clouds.10 mph94%30.48 "HgN/A
2:30 AM64 °FPassing clouds.9 mph88%30.48 "HgN/A
2:00 AM64 °FPassing clouds.10 mph88%30.48 "HgN/A
1:30 AM64 °FPassing clouds.12 mph94%30.48 "HgN/A
1:00 AM64 °FPassing clouds.9 mph88%30.48 "HgN/A
12:30 AM64 °FPassing clouds.10 mph88%30.48 "HgN/A
12:00 AM64 °FPassing clouds.12 mph88%30.48 "HgN/A
11:30 PM
Mon, Jun 27
64 °FPassing clouds.12 mph88%30.48 "HgN/A
11:00 PM66 °FPassing clouds.13 mph83%30.48 "HgN/A
10:30 PM66 °FPassing clouds.14 mph83%30.48 "HgN/A
10:00 PM66 °FPassing clouds.14 mph83%30.48 "HgN/A
9:30 PM66 °FPassing clouds.13 mph83%30.48 "HgN/A
9:00 PM66 °FPassing clouds.14 mph83%30.48 "HgN/A
8:30 PM68 °FPassing clouds.12 mph83%30.48 "HgN/A
8:00 PM68 °FScattered clouds.12 mph83%30.45 "HgN/A
7:30 PM68 °FPassing clouds.12 mph83%30.45 "HgN/A
7:00 PM70 °FPassing clouds.14 mph78%30.45 "HgN/A
6:30 PM70 °FPassing clouds.15 mph73%30.45 "HgN/A
6:00 PM70 °FPassing clouds.17 mph73%30.45 "HgN/A
5:30 PM70 °FPassing clouds.18 mph73%30.45 "HgN/A
5:00 PM70 °FPassing clouds.15 mph69%30.45 "HgN/A
4:30 PM70 °FPassing clouds.15 mph78%30.45 "HgN/A
4:00 PM70 °FScattered clouds.15 mph73%30.48 "HgN/A
3:30 PM72 °FScattered clouds.18 mph78%30.48 "HgN/A
3:00 PM70 °FScattered clouds.18 mph78%30.48 "HgN/A
2:30 PM72 °FScattered clouds.18 mph78%30.48 "HgN/A
2:00 PM70 °FScattered clouds.20 mph78%30.48 "HgN/A
1:30 PM70 °FScattered clouds.17 mph78%30.48 "HgN/A
1:00 PM70 °FScattered clouds.15 mph83%30.48 "HgN/A
12:30 PM70 °FScattered clouds.16 mph78%30.48 "HgN/A
12:00 PM68 °FScattered clouds.15 mph83%30.48 "HgN/A
11:30 AM68 °FScattered clouds.14 mph83%30.48 "HgN/A
11:00 AM70 °FScattered clouds.14 mph78%30.48 "HgN/A
10:30 AM68 °FPassing clouds.13 mph83%30.48 "HgN/A
10:00 AM68 °FPassing clouds.15 mph83%30.48 "HgN/A
9:30 AM68 °FPassing clouds.14 mph83%30.48 "HgN/A
9:00 AM66 °FBroken clouds.9 mph88%30.48 "HgN/A
8:30 AM66 °FScattered clouds.10 mph88%30.48 "HgN/A
8:00 AM64 °FPartly sunny.7 mph94%30.48 "HgN/A
7:30 AM64 °FScattered clouds.9 mph88%30.48 "HgN/A
7:00 AM63 °FPassing clouds.8 mph94%30.48 "HgN/A
6:30 AM63 °FPassing clouds.9 mph94%30.48 "HgN/A
6:00 AM63 °FPassing clouds.9 mph94%30.48 "HgN/A
Weather by CustomWeather, © 2016

See weather overviewHow to use our weather pages